Terminal Aerodrome Forecast
Issued by NWS Sioux Falls, SD

Home | Current Version | Previous Version | Graphics & Text | Print | Product List | Glossary Off
Versions: 1 2 3 4 5 6 7 8 9 10 11 12

000
FTUS43 KFSD 010500
TAFHON
TAF
KHON 010520Z 0106/0206 14005KT P6SM SKC
     FM011600 15007KT P6SM BKN120
     FM012300 13009KT P6SM SCT120=

USA.gov is the U.S. government's official web portal to all federal, state and local government web resources and services.